Location: Strawberry
(45.6646°N, 111.9596°W)
Time: 17:04:13
(UTC+00:00)

SR - Pass Details

Date: 10 October 2022
Orbit: 577 x 874 km, 66.7° (Epoch: 05 December)

Event Time Altitude Azimuth Distance (km) Brightness Sun altitude
Rises 04:08:52 0° 249° (WSW) 3,456 ? -34.1°
Reaches altitude 10° 04:11:44 10° 261° (W) 2,526 ? -34.5°
Maximum altitude 04:16:43 28° 319° (NW) 1,585 ? -35.3°
Enters shadow 04:20:34 15° 9° (N) 2,176 ? -35.8°
